Location: Gandikunta
(16.3784°N, 80.8378°E)
Time: 05:53:50
(UTC+00:00)

Palapa 6 Rocket - Pass Details

Date: 19 May 2025
Orbit: 481 x 1165 km, 22.7° (Epoch: 18 June)

Event Time Altitude Azimuth Distance (km) Brightness Sun altitude
Rises 13:32:03 0° 240° (WSW) 2,516 6.8 -7.7°
Reaches altitude 10° 13:34:14 10° 234° (SW) 1,641 5.7 -8.1°
Maximum altitude 13:37:49 47° 159° (SSE) 658 2.9 -8.9°
Drops below altitude 10° 13:41:41 10° 84° (E) 1,775 4.9 -9.8°
Enters shadow 13:41:48 - 84° (E) 1,818 4.9 -9.8°
